{"data":{"norad_id":63355,"intl_designator":"2025-061E","name":"LEMUR-2-NEUROSPICY","alt_names":[],"object_type":"PAYLOAD","status":"ACTIVE","operator":null,"country":"US","launch_date":"2025-03-26","launch_site_code":"RLLB","launch_vehicle":null,"mission":null,"orbit_class":"UNKNOWN","rcs_meters":null,"size_class":null,"mass_kg":null,"dimensions":null,"purposes":["earth_obs"],"wikipedia_slug":null,"has_3d_model":false,"image_url":null,"decayed_at":null,"tle_current":{"epoch":"2026-09-19T22:09:43.475904Z","epoch_age_seconds":64336,"freshness":"FRESH","line1":"1 63355U 25061E   26262.92341986  .00002461  00000+0  13588-3 0  9996","line2":"2 63355  97.5739 238.1053 0015003 295.4607  64.5072 15.14796979 81953","mean_motion":15.14796979,"eccentricity":0.0015003,"inclination_deg":97.5739,"raan_deg":238.1053,"arg_perigee_deg":295.4607,"mean_anomaly_deg":64.5072,"bstar":0.00013588,"rev_number":8195,"period_min":95.062243981409,"perigee_km":511.24331536542,"apogee_km":531.94665115439,"semimajor_km":6899.7319832599,"source":"CELESTRAK","updated_at":"2026-09-20T09:00:34.876345Z"}}}